Time,TemperatureF,DewpointF,PressureIn,WindDirection,WindDirectionDegrees,WindSpeedMPH,WindSpeedGustMPH,Humidity,HourlyPrecipIn,Conditions,Clouds,dailyrainin,SoftwareType,DateUTC
2013-04-12 00:04:00,49.8,27.0,29.88,NW,307,0.0,0.0,41,0.00,,,0.00,Wunderground v.1.15,2013-04-12 07:04:00,
2013-04-12 00:09:00,50.0,27.8,29.89,NW,311,0.0,0.0,42,0.00,,,0.00,Wunderground v.1.15,2013-04-12 07:09:00,
2013-04-12 00:15:00,49.7,27.5,29.89,NW,308,0.0,0.0,42,0.00,,,0.00,Wunderground v.1.15,2013-04-12 07:15:00,
2013-04-12 00:20:00,48.6,29.3,29.89,West,274,0.0,0.0,47,0.00,,,0.00,Wunderground v.1.15,2013-04-12 07:20:00,
2013-04-12 00:26:00,47.8,28.0,29.89,West,280,0.0,0.0,46,0.00,,,0.00,Wunderground v.1.15,2013-04-12 07:26:00,
2013-04-12 00:31:00,47.9,28.1,29.89,WNW,299,0.0,0.0,46,0.00,,,0.00,Wunderground v.1.15,2013-04-12 07:31:00,
2013-04-12 00:36:00,47.5,27.7,29.89,WNW,299,0.0,0.0,46,0.00,,,0.00,Wunderground v.1.15,2013-04-12 07:36:00,
2013-04-12 00:41:00,47.1,27.9,29.89,WNW,299,0.0,0.0,47,0.00,,,0.00,Wunderground v.1.15,2013-04-12 07:41:00,
2013-04-12 00:47:00,47.0,27.8,29.89,WNW,299,0.0,0.0,47,0.00,,,0.00,Wunderground v.1.15,2013-04-12 07:47:00,
2013-04-12 00:52:00,46.2,29.5,29.89,WNW,299,0.0,0.0,52,0.00,,,0.00,Wunderground v.1.15,2013-04-12 07:52:00,
2013-04-12 00:57:00,44.8,29.2,29.89,WNW,299,0.0,0.0,54,0.00,,,0.00,Wunderground v.1.15,2013-04-12 07:57:00,
2013-04-12 01:02:00,44.5,28.4,29.89,WNW,298,0.0,0.0,53,0.00,,,0.00,Wunderground v.1.15,2013-04-12 08:02:00,
2013-04-12 01:08:00,44.6,27.6,29.89,WNW,299,0.0,0.0,51,0.00,,,0.00,Wunderground v.1.15,2013-04-12 08:08:00,
2013-04-12 01:14:00,45.8,27.7,29.89,West,278,0.0,0.0,49,0.00,,,0.00,Wunderground v.1.15,2013-04-12 08:14:00,
2013-04-12 01:20:00,46.7,27.5,29.89,WSW,256,0.0,0.0,47,0.00,,,0.00,Wunderground v.1.15,2013-04-12 08:20:00,
2013-04-12 01:26:00,46.7,28.0,29.89,WSW,251,0.0,0.0,48,0.00,,,0.00,Wunderground v.1.15,2013-04-12 08:26:00,
2013-04-12 01:31:00,46.0,27.9,29.89,WSW,246,0.0,0.0,49,0.00,,,0.00,Wunderground v.1.15,2013-04-12 08:31:00,
2013-04-12 01:37:00,45.9,27.8,29.88,SW,235,0.0,0.0,49,0.00,,,0.00,Wunderground v.1.15,2013-04-12 08:37:00,
2013-04-12 01:43:00,45.2,29.5,29.88,WSW,251,0.0,0.0,54,0.00,,,0.00,Wunderground v.1.15,2013-04-12 08:43:00,
2013-04-12 01:49:00,43.2,30.2,29.88,WSW,247,0.0,0.0,60,0.00,,,0.00,Wunderground v.1.15,2013-04-12 08:49:00,
2013-04-12 01:55:00,42.7,30.6,29.88,SW,234,0.0,0.0,62,0.00,,,0.00,Wunderground v.1.15,2013-04-12 08:55:00,
2013-04-12 02:00:00,42.3,30.6,29.88,SW,235,0.0,0.0,63,0.00,,,0.00,Wunderground v.1.15,2013-04-12 09:00:00,
2013-04-12 02:06:00,42.0,30.7,29.88,WSW,247,0.0,0.0,64,0.00,,,0.00,Wunderground v.1.15,2013-04-12 09:06:00,
2013-04-12 02:12:00,42.5,30.4,29.88,WSW,252,0.0,0.0,62,0.00,,,0.00,Wunderground v.1.15,2013-04-12 09:12:00,
2013-04-12 02:17:00,42.7,29.8,29.88,WSW,255,0.0,0.0,60,0.00,,,0.00,Wunderground v.1.15,2013-04-12 09:17:00,
2013-04-12 02:22:00,43.3,28.6,29.89,WSW,256,0.0,0.0,56,0.00,,,0.00,Wunderground v.1.15,2013-04-12 09:22:00,
2013-04-12 02:28:00,43.6,28.5,29.89,West,274,0.0,0.0,55,0.00,,,0.00,Wunderground v.1.15,2013-04-12 09:28:00,
2013-04-12 02:34:00,42.5,28.8,29.89,West,280,0.0,0.0,58,0.00,,,0.00,Wunderground v.1.15,2013-04-12 09:34:00,
2013-04-12 02:40:00,41.5,28.2,29.89,WNW,288,0.0,0.0,59,0.00,,,0.00,Wunderground v.1.15,2013-04-12 09:40:00,
2013-04-12 02:46:00,40.9,28.1,29.89,West,269,0.0,0.0,60,0.00,,,0.00,Wunderground v.1.15,2013-04-12 09:46:00,
2013-04-12 02:51:00,40.5,27.3,29.89,West,275,0.0,0.0,59,0.00,,,0.00,Wunderground v.1.15,2013-04-12 09:51:00,
2013-04-12 02:57:00,40.2,27.4,29.89,WNW,287,0.0,0.0,60,0.00,,,0.00,Wunderground v.1.15,2013-04-12 09:57:00,
2013-04-12 03:03:00,39.8,27.8,29.89,WSW,257,0.0,0.0,62,0.00,,,0.00,Wunderground v.1.15,2013-04-12 10:03:00,
2013-04-12 03:08:00,39.4,27.8,29.89,WSW,257,0.0,0.0,63,0.00,,,0.00,Wunderground v.1.15,2013-04-12 10:08:00,
2013-04-12 03:14:00,39.2,28.0,29.89,WNW,285,0.0,0.0,64,0.00,,,0.00,Wunderground v.1.15,2013-04-12 10:14:00,
2013-04-12 03:19:00,38.9,27.8,29.89,West,273,0.0,0.0,64,0.00,,,0.00,Wunderground v.1.15,2013-04-12 10:19:00,
2013-04-12 03:25:00,38.8,27.7,29.90,West,273,0.0,0.0,64,0.00,,,0.00,Wunderground v.1.15,2013-04-12 10:25:00,
2013-04-12 03:30:00,39.0,27.8,29.90,West,260,0.0,0.0,64,0.00,,,0.00,Wunderground v.1.15,2013-04-12 10:30:00,
2013-04-12 03:36:00,39.0,27.5,29.90,West,266,0.0,0.0,63,0.00,,,0.00,Wunderground v.1.15,2013-04-12 10:36:00,
2013-04-12 03:41:00,39.0,27.1,29.90,WNW,289,0.0,0.0,62,0.00,,,0.00,Wunderground v.1.15,2013-04-12 10:41:00,
2013-04-12 03:46:00,39.3,26.6,29.90,West,276,0.0,2.0,60,0.00,,,0.00,Wunderground v.1.15,2013-04-12 10:46:00,
2013-04-12 03:52:00,40.0,26.4,29.90,West,259,1.0,2.0,58,0.00,,,0.00,Wunderground v.1.15,2013-04-12 10:52:00,
2013-04-12 03:58:00,40.1,26.1,29.90,WNW,284,1.0,3.0,57,0.00,,,0.00,Wunderground v.1.15,2013-04-12 10:58:00,
2013-04-12 04:03:00,40.0,26.0,29.90,West,260,1.0,2.0,57,0.00,,,0.00,Wunderground v.1.15,2013-04-12 11:03:00,
2013-04-12 04:09:00,39.6,26.0,29.90,WNW,285,1.0,3.0,58,0.00,,,0.00,Wunderground v.1.15,2013-04-12 11:09:00,
2013-04-12 04:15:00,39.5,25.5,29.90,WNW,289,0.0,2.0,57,0.00,,,0.00,Wunderground v.1.15,2013-04-12 11:15:00,
2013-04-12 04:22:00,39.3,25.7,29.90,WSW,251,0.0,0.0,58,0.00,,,0.00,Wunderground v.1.15,2013-04-12 11:22:00,
2013-04-12 04:28:00,39.2,25.6,29.90,WSW,258,0.0,2.0,58,0.00,,,0.00,Wunderground v.1.15,2013-04-12 11:28:00,
2013-04-12 04:33:00,39.3,25.7,29.90,West,262,0.0,1.0,58,0.00,,,0.00,Wunderground v.1.15,2013-04-12 11:33:00,
2013-04-12 04:39:00,39.5,25.5,29.90,West,264,0.0,1.0,57,0.00,,,0.00,Wunderground v.1.15,2013-04-12 11:39:00,
2013-04-12 04:44:00,39.6,25.2,29.90,West,271,1.0,3.0,56,0.00,,,0.00,Wunderground v.1.15,2013-04-12 11:44:00,
2013-04-12 04:50:00,39.5,25.5,29.91,WSW,258,2.0,2.0,57,0.00,,,0.00,Wunderground v.1.15,2013-04-12 11:50:00,
2013-04-12 04:56:00,39.3,25.3,29.90,West,269,1.0,2.0,57,0.00,,,0.00,Wunderground v.1.15,2013-04-12 11:56:00,
2013-04-12 05:02:00,39.1,25.1,29.90,WSW,257,1.0,1.0,57,0.00,,,0.00,Wunderground v.1.15,2013-04-12 12:02:00,
2013-04-12 05:07:00,38.9,24.9,29.90,West,274,0.0,1.0,57,0.00,,,0.00,Wunderground v.1.15,2013-04-12 12:07:00,
2013-04-12 05:13:00,38.8,24.9,29.91,WSW,258,1.0,1.0,57,0.00,,,0.00,Wunderground v.1.15,2013-04-12 12:13:00,
2013-04-12 05:18:00,39.0,25.0,29.91,WNW,301,0.0,1.0,57,0.00,,,0.00,Wunderground v.1.15,2013-04-12 12:18:00,
2013-04-12 05:24:00,39.1,25.1,29.91,West,275,0.0,2.0,57,0.00,,,0.00,Wunderground v.1.15,2013-04-12 12:24:00,
2013-04-12 05:30:00,39.3,24.9,29.91,WNW,282,1.0,1.0,56,0.00,,,0.00,Wunderground v.1.15,2013-04-12 12:30:00,
2013-04-12 05:36:00,39.7,24.4,29.91,WNW,292,1.0,3.0,54,0.00,,,0.00,Wunderground v.1.15,2013-04-12 12:36:00,
2013-04-12 05:42:00,40.0,24.7,29.91,WNW,294,1.0,2.0,54,0.00,,,0.00,Wunderground v.1.15,2013-04-12 12:42:00,
2013-04-12 05:48:00,39.7,24.4,29.92,WNW,293,2.0,3.0,54,0.00,,,0.00,Wunderground v.1.15,2013-04-12 12:48:00,
2013-04-12 05:53:00,39.0,24.6,29.92,NW,307,1.0,2.0,56,0.00,,,0.00,Wunderground v.1.15,2013-04-12 12:53:00,
2013-04-12 05:59:00,38.6,24.7,29.92,WSW,255,0.0,2.0,57,0.00,,,0.00,Wunderground v.1.15,2013-04-12 12:59:00,
2013-04-12 06:04:00,38.5,24.6,29.92,WNW,283,0.0,0.0,57,0.00,,,0.00,Wunderground v.1.15,2013-04-12 13:04:00,
2013-04-12 06:10:00,38.3,24.8,29.93,WSW,256,0.0,0.0,58,0.00,,,0.00,Wunderground v.1.15,2013-04-12 13:10:00,
2013-04-12 06:15:00,38.0,24.5,29.93,West,281,0.0,0.0,58,0.00,,,0.00,Wunderground v.1.15,2013-04-12 13:15:00,
2013-04-12 06:22:00,37.4,24.0,29.93,West,275,0.0,0.0,58,0.00,,,0.00,Wunderground v.1.15,2013-04-12 13:22:00,
2013-04-12 06:27:00,37.4,24.0,29.94,West,275,0.0,0.0,58,0.00,,,0.00,Wunderground v.1.15,2013-04-12 13:27:00,
2013-04-12 06:33:00,-999.9,-99.9,29.94,North,32767,-999.0,0.0,255,-99.99,,,0.00,Wunderground v.1.15,2013-04-12 13:33:00,
2013-04-12 06:39:00,-999.9,-99.9,29.94,North,32767,-999.0,0.0,255,-99.99,,,0.00,Wunderground v.1.15,2013-04-12 13:39:00,
2013-04-12 06:44:00,-999.9,-99.9,29.94,North,32767,-999.0,0.0,255,-99.99,,,0.00,Wunderground v.1.15,2013-04-12 13:44:00,
2013-04-12 06:49:00,-999.9,-99.9,29.94,North,32767,-999.0,0.0,255,-99.99,,,0.00,Wunderground v.1.15,2013-04-12 13:49:00,
2013-04-12 06:54:00,-999.9,-99.9,29.94,North,32767,-999.0,0.0,255,-99.99,,,0.00,Wunderground v.1.15,2013-04-12 13:54:00,
2013-04-12 07:00:00,-999.9,-99.9,29.95,North,32767,-999.0,0.0,255,-99.99,,,0.00,Wunderground v.1.15,2013-04-12 14:00:00,
2013-04-12 07:06:00,-999.9,-99.9,29.95,North,32767,-999.0,0.0,255,-99.99,,,0.00,Wunderground v.1.15,2013-04-12 14:06:00,
2013-04-12 07:12:00,-999.9,-99.9,29.95,North,32767,-999.0,0.0,255,-99.99,,,0.00,Wunderground v.1.15,2013-04-12 14:12:00,
2013-04-12 07:17:00,-999.9,-99.9,29.95,North,32767,-999.0,0.0,255,-99.99,,,0.00,Wunderground v.1.15,2013-04-12 14:17:00,
2013-04-12 07:23:00,-999.9,-99.9,29.95,North,32767,-999.0,0.0,255,-99.99,,,0.00,Wunderground v.1.15,2013-04-12 14:23:00,
2013-04-12 07:29:00,-999.9,-99.9,29.95,North,32767,-999.0,0.0,255,-99.99,,,0.00,Wunderground v.1.15,2013-04-12 14:29:00,
2013-04-12 07:35:00,40.3,27.9,29.96,WSW,257,0.0,0.0,61,0.00,,,0.00,Wunderground v.1.15,2013-04-12 14:35:00,
2013-04-12 07:40:00,41.2,27.9,29.96,West,263,0.0,0.0,59,0.00,,,0.00,Wunderground v.1.15,2013-04-12 14:40:00,
2013-04-12 07:47:00,42.6,27.5,29.96,West,264,0.0,0.0,55,0.00,,,0.00,Wunderground v.1.15,2013-04-12 14:47:00,
2013-04-12 07:53:00,43.8,27.8,29.97,West,281,0.0,0.0,53,0.00,,,0.00,Wunderground v.1.15,2013-04-12 14:53:00,
2013-04-12 07:58:00,44.5,27.5,29.97,West,281,0.0,0.0,51,0.00,,,0.00,Wunderground v.1.15,2013-04-12 14:58:00,
2013-04-12 08:04:00,45.2,26.7,29.97,WNW,293,0.0,0.0,48,0.00,,,0.00,Wunderground v.1.15,2013-04-12 15:04:00,
2013-04-12 08:09:00,45.9,27.3,29.97,WNW,290,0.0,0.0,48,0.00,,,0.00,Wunderground v.1.15,2013-04-12 15:09:00,
2013-04-12 08:14:00,46.5,25.7,29.97,WNW,301,0.0,0.0,44,0.00,,,0.00,Wunderground v.1.15,2013-04-12 15:14:00,
2013-04-12 08:19:00,47.1,26.3,29.97,WNW,297,0.0,0.0,44,0.00,,,0.00,Wunderground v.1.15,2013-04-12 15:19:00,
2013-04-12 08:25:00,48.1,23.7,29.97,North,6,0.0,0.0,38,0.00,,,0.00,Wunderground v.1.15,2013-04-12 15:25:00,
2013-04-12 08:32:00,48.5,24.6,29.97,NNE,27,0.0,0.0,39,0.00,,,0.00,Wunderground v.1.15,2013-04-12 15:32:00,
2013-04-12 08:37:00,48.5,22.7,29.98,NE,34,0.0,0.0,36,0.00,,,0.00,Wunderground v.1.15,2013-04-12 15:37:00,
2013-04-12 08:43:00,48.8,22.3,29.97,NNW,328,0.0,0.0,35,0.00,,,0.00,Wunderground v.1.15,2013-04-12 15:43:00,
2013-04-12 08:48:00,49.3,22.1,29.97,North,353,0.0,0.0,34,0.00,,,0.00,Wunderground v.1.15,2013-04-12 15:48:00,
2013-04-12 08:54:00,49.5,22.3,29.98,NW,317,0.0,0.0,34,0.00,,,0.00,Wunderground v.1.15,2013-04-12 15:54:00,
2013-04-12 09:00:00,50.2,21.4,29.98,ENE,68,0.0,0.0,32,0.00,,,0.00,Wunderground v.1.15,2013-04-12 16:00:00,
2013-04-12 09:07:00,50.8,22.0,29.98,East,93,0.0,0.0,32,0.00,,,0.00,Wunderground v.1.15,2013-04-12 16:07:00,
2013-04-12 09:12:00,50.8,21.2,29.98,East,97,0.0,0.0,31,0.00,,,0.00,Wunderground v.1.15,2013-04-12 16:12:00,
2013-04-12 09:17:00,50.8,21.2,29.98,NNE,28,0.0,0.0,31,0.00,,,0.00,Wunderground v.1.15,2013-04-12 16:17:00,
2013-04-12 09:22:00,51.2,20.8,29.98,NNW,342,0.0,0.0,30,0.00,,,0.00,Wunderground v.1.15,2013-04-12 16:22:00,
2013-04-12 09:28:00,51.6,21.1,29.98,West,271,0.0,0.0,30,0.00,,,0.00,Wunderground v.1.15,2013-04-12 16:28:00,
2013-04-12 09:34:00,52.7,22.1,29.98,ENE,70,0.0,0.0,30,0.00,,,0.00,Wunderground v.1.15,2013-04-12 16:34:00,
2013-04-12 09:40:00,52.2,21.7,29.97,NW,325,0.0,0.0,30,0.00,,,0.00,Wunderground v.1.15,2013-04-12 16:40:00,
2013-04-12 09:47:00,53.2,21.7,29.98,SW,219,0.0,0.0,29,0.00,,,0.00,Wunderground v.1.15,2013-04-12 16:47:00,
2013-04-12 09:52:00,53.9,20.6,29.98,WSW,245,0.0,0.0,27,0.00,,,0.00,Wunderground v.1.15,2013-04-12 16:52:00,
2013-04-12 09:58:00,54.4,21.1,29.98,WNW,287,0.0,0.0,27,0.00,,,0.00,Wunderground v.1.15,2013-04-12 16:58:00,
2013-04-12 10:03:00,54.0,21.6,29.98,NNE,24,0.0,0.0,28,0.00,,,0.00,Wunderground v.1.15,2013-04-12 17:03:00,
2013-04-12 10:09:00,53.7,20.5,29.98,West,265,0.0,0.0,27,0.00,,,0.00,Wunderground v.1.15,2013-04-12 17:09:00,
2013-04-12 10:15:00,53.9,21.5,29.98,WSW,255,0.0,0.0,28,0.00,,,0.00,Wunderground v.1.15,2013-04-12 17:15:00,
2013-04-12 10:21:00,54.3,21.8,29.98,WSW,248,0.0,0.0,28,0.00,,,0.00,Wunderground v.1.15,2013-04-12 17:21:00,
2013-04-12 10:26:00,54.9,21.5,29.97,SSE,166,0.0,0.0,27,0.00,,,0.00,Wunderground v.1.15,2013-04-12 17:26:00,
2013-04-12 10:32:00,54.8,19.6,29.97,ENE,59,0.0,0.0,25,0.00,,,0.00,Wunderground v.1.15,2013-04-12 17:32:00,
2013-04-12 10:37:00,54.5,19.3,29.97,NNW,341,0.0,0.0,25,0.00,,,0.00,Wunderground v.1.15,2013-04-12 17:37:00,
2013-04-12 10:43:00,54.7,20.4,29.96,SE,124,0.0,0.0,26,0.00,,,0.00,Wunderground v.1.15,2013-04-12 17:43:00,
2013-04-12 10:49:00,55.4,20.1,29.97,South,173,0.0,0.0,25,0.00,,,0.00,Wunderground v.1.15,2013-04-12 17:49:00,
2013-04-12 10:55:00,56.3,20.9,29.96,SSW,200,0.0,0.0,25,0.00,,,0.00,Wunderground v.1.15,2013-04-12 17:55:00,
2013-04-12 11:00:00,56.2,19.8,29.96,SSE,149,0.0,0.0,24,0.00,,,0.00,Wunderground v.1.15,2013-04-12 18:00:00,
2013-04-12 11:06:00,56.3,20.9,29.96,WSW,255,0.0,0.0,25,0.00,,,0.00,Wunderground v.1.15,2013-04-12 18:06:00,
2013-04-12 11:12:00,56.1,20.7,29.95,ESE,114,0.0,0.0,25,0.00,,,0.00,Wunderground v.1.15,2013-04-12 18:12:00,
2013-04-12 11:18:00,56.5,21.1,29.96,ESE,105,0.0,0.0,25,0.00,,,0.00,Wunderground v.1.15,2013-04-12 18:18:00,
2013-04-12 11:24:00,57.2,21.6,29.95,SSE,158,0.0,0.0,25,0.00,,,0.00,Wunderground v.1.15,2013-04-12 18:24:00,
2013-04-12 11:29:00,57.1,19.6,29.95,SSE,163,0.0,0.0,23,0.00,,,0.00,Wunderground v.1.15,2013-04-12 18:29:00,
2013-04-12 12:27:00,60.2,18.9,29.92,SW,214,0.0,0.0,20,0.00,,,0.00,Wunderground v.1.15,2013-04-12 19:27:00,
2013-04-12 12:28:00,60.4,19.1,29.92,SSE,154,0.0,0.0,20,0.00,,,0.00,Wunderground v.1.15,2013-04-12 19:28:00,
2013-04-12 12:29:00,60.5,19.2,29.92,ENE,77,0.0,0.0,20,0.00,,,0.00,Wunderground v.1.15,2013-04-12 19:29:00,
2013-04-12 12:34:00,60.4,17.9,29.92,ENE,66,0.0,0.0,19,0.00,,,0.00,Wunderground v.1.15,2013-04-12 19:34:00,
2013-04-12 12:35:00,60.5,19.2,29.92,ENE,69,0.0,0.0,20,0.00,,,0.00,Wunderground v.1.15,2013-04-12 19:35:00,
2013-04-12 12:41:00,60.0,18.8,29.91,East,91,0.0,0.0,20,0.00,,,0.00,Wunderground v.1.15,2013-04-12 19:41:00,
2013-04-12 12:46:00,59.9,18.7,29.91,NNE,27,0.0,0.0,20,0.00,,,0.00,Wunderground v.1.15,2013-04-12 19:46:00,
2013-04-12 12:52:00,60.5,18.0,29.91,WNW,298,0.0,0.0,19,0.00,,,0.00,Wunderground v.1.15,2013-04-12 19:52:00,
2013-04-12 12:57:00,61.5,16.2,29.90,SSE,160,0.0,0.0,17,0.00,,,0.00,Wunderground v.1.15,2013-04-12 19:57:00,
2013-04-12 13:03:00,61.7,16.4,29.90,South,185,0.0,0.0,17,0.00,,,0.00,Wunderground v.1.15,2013-04-12 20:03:00,
2013-04-12 13:08:00,62.2,16.8,29.90,SW,233,0.0,0.0,17,0.00,,,0.00,Wunderground v.1.15,2013-04-12 20:08:00,
2013-04-12 13:14:00,62.7,17.2,29.90,NW,304,0.0,0.0,17,0.00,,,0.00,Wunderground v.1.15,2013-04-12 20:14:00,
2013-04-12 13:20:00,61.5,17.5,29.89,WNW,295,0.0,0.0,18,0.00,,,0.00,Wunderground v.1.15,2013-04-12 20:20:00,
2013-04-12 13:26:00,61.4,17.5,29.89,WSW,243,0.0,0.0,18,0.00,,,0.00,Wunderground v.1.15,2013-04-12 20:26:00,
2013-04-12 13:32:00,62.3,16.9,29.88,SW,217,0.0,0.0,17,0.00,,,0.00,Wunderground v.1.15,2013-04-12 20:32:00,
2013-04-12 13:38:00,62.2,15.4,29.88,WSW,252,0.0,0.0,16,0.00,,,0.00,Wunderground v.1.15,2013-04-12 20:38:00,
2013-04-12 13:44:00,62.3,16.9,29.88,NE,48,0.0,0.0,17,0.00,,,0.00,Wunderground v.1.15,2013-04-12 20:44:00,
2013-04-12 13:49:00,63.1,18.9,29.87,SE,138,0.0,0.0,18,0.00,,,0.00,Wunderground v.1.15,2013-04-12 20:49:00,
2013-04-12 13:54:00,62.8,17.3,29.87,ESE,104,0.0,0.0,17,0.00,,,0.00,Wunderground v.1.15,2013-04-12 20:54:00,
2013-04-12 14:00:00,62.8,15.9,29.87,WSW,257,0.0,0.0,16,0.00,,,0.00,Wunderground v.1.15,2013-04-12 21:00:00,
2013-04-12 14:07:00,63.5,15.0,29.86,SE,124,0.0,0.0,15,0.00,,,0.00,Wunderground v.1.15,2013-04-12 21:07:00,
2013-04-12 14:13:00,63.2,16.2,29.86,SE,125,0.0,0.0,16,0.00,,,0.00,Wunderground v.1.15,2013-04-12 21:13:00,
2013-04-12 14:18:00,63.1,16.1,29.86,SW,217,0.0,0.0,16,0.00,,,0.00,Wunderground v.1.15,2013-04-12 21:18:00,
2013-04-12 14:23:00,63.8,15.2,29.86,SE,139,0.0,0.0,15,0.00,,,0.00,Wunderground v.1.15,2013-04-12 21:23:00,
2013-04-12 14:28:00,63.8,15.2,29.85,WSW,257,0.0,0.0,15,0.00,,,0.00,Wunderground v.1.15,2013-04-12 21:28:00,
2013-04-12 14:34:00,63.8,15.2,29.85,SW,217,0.0,0.0,15,0.00,,,0.00,Wunderground v.1.15,2013-04-12 21:34:00,
2013-04-12 14:40:00,64.1,15.4,29.85,SW,217,0.0,0.0,15,0.00,,,0.00,Wunderground v.1.15,2013-04-12 21:40:00,
2013-04-12 14:46:00,64.0,15.4,29.84,West,273,0.0,0.0,15,0.00,,,0.00,Wunderground v.1.15,2013-04-12 21:46:00,
2013-04-12 14:51:00,65.2,14.7,29.84,SSW,193,0.0,0.0,14,0.00,,,0.00,Wunderground v.1.15,2013-04-12 21:51:00,
2013-04-12 14:57:00,66.0,15.4,29.84,ENE,64,0.0,0.0,14,0.00,,,0.00,Wunderground v.1.15,2013-04-12 21:57:00,
2013-04-12 15:02:00,65.4,14.9,29.84,WNW,300,0.0,0.0,14,0.00,,,0.00,Wunderground v.1.15,2013-04-12 22:02:00,
2013-04-12 15:08:00,64.9,16.1,29.84,East,87,0.0,0.0,15,0.00,,,0.00,Wunderground v.1.15,2013-04-12 22:08:00,
2013-04-12 15:13:00,64.6,15.8,29.83,WNW,290,0.0,0.0,15,0.00,,,0.00,Wunderground v.1.15,2013-04-12 22:13:00,
2013-04-12 15:18:00,64.9,16.1,29.83,NW,323,0.0,0.0,15,0.00,,,0.00,Wunderground v.1.15,2013-04-12 22:18:00,
2013-04-12 15:24:00,64.7,15.9,29.82,NW,312,0.0,0.0,15,0.00,,,0.00,Wunderground v.1.15,2013-04-12 22:24:00,
2013-04-12 15:29:00,65.1,16.2,29.81,ESE,114,0.0,0.0,15,0.00,,,0.00,Wunderground v.1.15,2013-04-12 22:29:00,
2013-04-12 15:35:00,65.3,14.8,29.81,SW,226,0.0,0.0,14,0.00,,,0.00,Wunderground v.1.15,2013-04-12 22:35:00,
2013-04-12 15:41:00,65.3,14.8,29.81,SSE,150,0.0,0.0,14,0.00,,,0.00,Wunderground v.1.15,2013-04-12 22:41:00,
2013-04-12 15:47:00,65.8,15.2,29.81,SW,219,0.0,0.0,14,0.00,,,0.00,Wunderground v.1.15,2013-04-12 22:47:00,
2013-04-12 15:52:00,66.3,15.6,29.80,ESE,105,0.0,0.0,14,0.00,,,0.00,Wunderground v.1.15,2013-04-12 22:52:00,
2013-04-12 15:57:00,66.2,15.5,29.80,South,176,0.0,0.0,14,0.00,,,0.00,Wunderground v.1.15,2013-04-12 22:57:00,
2013-04-12 16:03:00,65.5,15.0,29.80,ENE,73,0.0,0.0,14,0.00,,,0.00,Wunderground v.1.15,2013-04-12 23:03:00,
2013-04-12 16:08:00,65.3,14.8,29.80,NE,34,0.0,0.0,14,0.00,,,0.00,Wunderground v.1.15,2013-04-12 23:08:00,
2013-04-12 16:13:00,66.1,13.8,29.79,SSE,148,0.0,0.0,13,0.00,,,0.00,Wunderground v.1.15,2013-04-12 23:13:00,
2013-04-12 16:19:00,66.0,13.7,29.79,SSE,148,0.0,0.0,13,0.00,,,0.00,Wunderground v.1.15,2013-04-12 23:19:00,
2013-04-12 16:25:00,66.4,14.0,29.79,North,349,0.0,0.0,13,0.00,,,0.00,Wunderground v.1.15,2013-04-12 23:25:00,
2013-04-12 16:30:00,66.7,14.2,29.79,SE,131,0.0,0.0,13,0.00,,,0.00,Wunderground v.1.15,2013-04-12 23:30:00,
2013-04-12 16:36:00,67.5,14.9,29.78,SSE,165,0.0,0.0,13,0.00,,,0.00,Wunderground v.1.15,2013-04-12 23:36:00,
2013-04-12 16:42:00,67.6,13.1,29.78,SW,224,0.0,0.0,12,0.00,,,0.00,Wunderground v.1.15,2013-04-12 23:42:00,
2013-04-12 16:47:00,67.9,13.3,29.78,SSW,207,0.0,0.0,12,0.00,,,0.00,Wunderground v.1.15,2013-04-12 23:47:00,
2013-04-12 16:52:00,67.4,14.8,29.77,South,180,0.0,0.0,13,0.00,,,0.00,Wunderground v.1.15,2013-04-12 23:52:00,
2013-04-12 16:58:00,67.5,13.0,29.77,ESE,114,0.0,0.0,12,0.00,,,0.00,Wunderground v.1.15,2013-04-12 23:58:00,
2013-04-12 17:04:00,67.1,12.7,29.77,NNE,32,0.0,0.0,12,0.00,,,0.00,Wunderground v.1.15,2013-04-13 00:04:00,
2013-04-12 17:09:00,66.7,12.4,29.77,NNW,347,0.0,0.0,12,0.00,,,0.00,Wunderground v.1.15,2013-04-13 00:09:00,
2013-04-12 17:15:00,66.7,12.4,29.77,ESE,115,0.0,0.0,12,0.00,,,0.00,Wunderground v.1.15,2013-04-13 00:15:00,
2013-04-12 17:20:00,66.7,12.4,29.76,NW,324,0.0,0.0,12,0.00,,,0.00,Wunderground v.1.15,2013-04-13 00:20:00,
2013-04-12 17:25:00,66.8,14.3,29.76,WSW,237,0.0,0.0,13,0.00,,,0.00,Wunderground v.1.15,2013-04-13 00:25:00,
2013-04-12 17:30:00,66.8,14.3,29.76,East,89,0.0,0.0,13,0.00,,,0.00,Wunderground v.1.15,2013-04-13 00:30:00,
2013-04-12 17:35:00,66.5,14.1,29.76,East,94,0.0,0.0,13,0.00,,,0.00,Wunderground v.1.15,2013-04-13 00:35:00,
2013-04-12 17:40:00,66.8,14.3,29.76,ENE,64,0.0,0.0,13,0.00,,,0.00,Wunderground v.1.15,2013-04-13 00:40:00,
2013-04-12 17:46:00,66.9,14.4,29.76,South,188,0.0,0.0,13,0.00,,,0.00,Wunderground v.1.15,2013-04-13 00:46:00,
2013-04-12 17:52:00,67.0,14.5,29.76,ENE,76,0.0,0.0,13,0.00,,,0.00,Wunderground v.1.15,2013-04-13 00:52:00,
2013-04-12 17:58:00,66.9,14.4,29.76,ESE,111,0.0,0.0,13,0.00,,,0.00,Wunderground v.1.15,2013-04-13 00:58:00,
2013-04-12 18:04:00,67.5,14.9,29.75,WSW,252,0.0,0.0,13,0.00,,,0.00,Wunderground v.1.15,2013-04-13 01:04:00,
2013-04-12 18:09:00,67.2,14.6,29.75,ENE,62,0.0,0.0,13,0.00,,,0.00,Wunderground v.1.15,2013-04-13 01:09:00,
2013-04-12 18:15:00,66.6,14.2,29.75,East,82,0.0,0.0,13,0.00,,,0.00,Wunderground v.1.15,2013-04-13 01:15:00,
2013-04-12 18:20:00,66.5,14.1,29.75,NE,46,0.0,0.0,13,0.00,,,0.00,Wunderground v.1.15,2013-04-13 01:20:00,
2013-04-12 18:26:00,66.4,14.0,29.75,NNE,27,0.0,0.0,13,0.00,,,0.00,Wunderground v.1.15,2013-04-13 01:26:00,
2013-04-12 18:32:00,66.3,13.9,29.75,NNE,27,0.0,0.0,13,0.00,,,0.00,Wunderground v.1.15,2013-04-13 01:32:00,
2013-04-12 18:38:00,66.2,13.8,29.74,NE,56,0.0,0.0,13,0.00,,,0.00,Wunderground v.1.15,2013-04-13 01:38:00,
2013-04-12 18:43:00,66.2,13.8,29.74,ENE,63,0.0,0.0,13,0.00,,,0.00,Wunderground v.1.15,2013-04-13 01:43:00,
2013-04-12 18:49:00,66.2,15.5,29.74,East,82,0.0,0.0,14,0.00,,,0.00,Wunderground v.1.15,2013-04-13 01:49:00,
2013-04-12 18:54:00,66.0,15.4,29.74,ENE,68,0.0,0.0,14,0.00,,,0.00,Wunderground v.1.15,2013-04-13 01:54:00,
2013-04-12 19:00:00,65.9,15.3,29.74,ENE,76,0.0,0.0,14,0.00,,,0.00,Wunderground v.1.15,2013-04-13 02:00:00,
2013-04-12 19:05:00,65.8,15.2,29.74,East,98,0.0,0.0,14,0.00,,,0.00,Wunderground v.1.15,2013-04-13 02:05:00,
2013-04-12 19:11:00,65.2,17.8,29.73,East,96,0.0,0.0,16,0.00,,,0.00,Wunderground v.1.15,2013-04-13 02:11:00,
2013-04-12 19:16:00,64.6,17.3,29.73,East,98,0.0,0.0,16,0.00,,,0.00,Wunderground v.1.15,2013-04-13 02:16:00,
2013-04-12 19:22:00,63.9,19.5,29.73,ESE,120,0.0,0.0,18,0.00,,,0.00,Wunderground v.1.15,2013-04-13 02:22:00,
2013-04-12 19:28:00,63.1,20.1,29.73,SE,136,0.0,0.0,19,0.00,,,0.00,Wunderground v.1.15,2013-04-13 02:28:00,
2013-04-12 19:33:00,62.2,20.6,29.73,SE,135,0.0,0.0,20,0.00,,,0.00,Wunderground v.1.15,2013-04-13 02:33:00,
2013-04-12 19:39:00,61.6,21.2,29.73,SE,132,0.0,0.0,21,0.00,,,0.00,Wunderground v.1.15,2013-04-13 02:39:00,
2013-04-12 19:44:00,61.1,21.9,29.73,SE,126,0.0,0.0,22,0.00,,,0.00,Wunderground v.1.15,2013-04-13 02:44:00,
2013-04-12 19:49:00,60.9,21.8,29.74,SE,131,0.0,0.0,22,0.00,,,0.00,Wunderground v.1.15,2013-04-13 02:49:00,
2013-04-12 19:55:00,60.4,22.4,29.73,SE,124,0.0,0.0,23,0.00,,,0.00,Wunderground v.1.15,2013-04-13 02:55:00,
2013-04-12 20:00:00,59.9,22.0,29.73,SE,128,0.0,0.0,23,0.00,,,0.00,Wunderground v.1.15,2013-04-13 03:00:00,
2013-04-12 20:06:00,59.5,22.6,29.74,SE,139,0.0,0.0,24,0.00,,,0.00,Wunderground v.1.15,2013-04-13 03:06:00,
2013-04-12 20:11:00,59.2,22.4,29.73,SSE,149,0.0,0.0,24,0.00,,,0.00,Wunderground v.1.15,2013-04-13 03:11:00,
2013-04-12 20:17:00,58.9,22.1,29.74,SSE,150,0.0,0.0,24,0.00,,,0.00,Wunderground v.1.15,2013-04-13 03:17:00,
2013-04-12 20:23:00,58.7,22.0,29.74,South,187,0.0,0.0,24,0.00,,,0.00,Wunderground v.1.15,2013-04-13 03:23:00,
2013-04-12 20:28:00,58.8,22.0,29.74,South,181,0.0,0.0,24,0.00,,,0.00,Wunderground v.1.15,2013-04-13 03:28:00,
2013-04-12 20:33:00,58.6,22.8,29.75,South,187,0.0,0.0,25,0.00,,,0.00,Wunderground v.1.15,2013-04-13 03:33:00,
2013-04-12 20:39:00,58.3,22.6,29.75,SSW,195,0.0,0.0,25,0.00,,,0.00,Wunderground v.1.15,2013-04-13 03:39:00,
2013-04-12 20:44:00,58.3,21.6,29.75,South,186,0.0,0.0,24,0.00,,,0.00,Wunderground v.1.15,2013-04-13 03:44:00,
2013-04-12 20:50:00,58.2,22.5,29.75,South,187,0.0,0.0,25,0.00,,,0.00,Wunderground v.1.15,2013-04-13 03:50:00,
2013-04-12 20:55:00,57.9,23.2,29.75,SSW,203,0.0,0.0,26,0.00,,,0.00,Wunderground v.1.15,2013-04-13 03:55:00,
2013-04-12 21:00:00,57.8,24.0,29.75,West,277,0.0,0.0,27,0.00,,,0.00,Wunderground v.1.15,2013-04-13 04:00:00,
2013-04-12 21:04:00,57.3,23.6,29.75,West,278,0.0,0.0,27,0.00,,,0.00,Wunderground v.1.15,2013-04-13 04:04:00,
2013-04-12 21:10:00,57.1,24.3,29.75,West,268,0.0,0.0,28,0.00,,,0.00,Wunderground v.1.15,2013-04-13 04:10:00,
2013-04-12 21:12:00,57.1,23.4,29.75,West,264,0.0,0.0,27,0.00,,,0.00,Wunderground v.1.15,2013-04-13 04:12:00,
2013-04-12 21:13:00,57.2,23.5,29.75,West,263,0.0,0.0,27,0.00,,,0.00,Wunderground v.1.15,2013-04-13 04:13:00,
2013-04-12 21:19:00,56.6,24.7,29.76,WSW,255,0.0,0.0,29,0.00,,,0.00,Wunderground v.1.15,2013-04-13 04:19:00,
2013-04-12 21:25:00,56.5,23.7,29.76,WSW,252,0.0,0.0,28,0.00,,,0.00,Wunderground v.1.15,2013-04-13 04:25:00,
2013-04-12 21:31:00,56.8,23.1,29.77,WSW,248,0.0,0.0,27,0.00,,,0.00,Wunderground v.1.15,2013-04-13 04:31:00,
2013-04-12 21:36:00,56.9,22.3,29.76,SW,231,0.0,0.0,26,0.00,,,0.00,Wunderground v.1.15,2013-04-13 04:36:00,
2013-04-12 21:41:00,57.1,21.6,29.76,SW,223,0.0,0.0,25,0.00,,,0.00,Wunderground v.1.15,2013-04-13 04:41:00,
2013-04-12 21:46:00,57.2,21.6,29.76,SW,227,0.0,0.0,25,0.00,,,0.00,Wunderground v.1.15,2013-04-13 04:46:00,
2013-04-12 21:52:00,57.5,21.9,29.76,SW,227,0.0,0.0,25,0.00,,,0.00,Wunderground v.1.15,2013-04-13 04:52:00,
2013-04-12 21:58:00,57.8,21.2,29.76,WSW,251,0.0,0.0,24,0.00,,,0.00,Wunderground v.1.15,2013-04-13 04:58:00,
2013-04-12 22:04:00,57.2,24.3,29.77,WSW,255,0.0,0.0,28,0.00,,,0.00,Wunderground v.1.15,2013-04-13 05:04:00,
2013-04-12 22:09:00,56.3,24.4,29.77,WSW,249,0.0,0.0,29,0.00,,,0.00,Wunderground v.1.15,2013-04-13 05:09:00,
2013-04-12 22:14:00,56.0,24.2,29.77,SW,214,0.0,0.0,29,0.00,,,0.00,Wunderground v.1.15,2013-04-13 05:14:00,
2013-04-12 22:19:00,55.7,24.7,29.76,SW,224,0.0,0.0,30,0.00,,,0.00,Wunderground v.1.15,2013-04-13 05:19:00,
2013-04-12 22:25:00,55.8,23.1,29.77,SW,224,0.0,0.0,28,0.00,,,0.00,Wunderground v.1.15,2013-04-13 05:25:00,
2013-04-12 22:31:00,56.5,23.7,29.76,SSE,160,0.0,0.0,28,0.00,,,0.00,Wunderground v.1.15,2013-04-13 05:31:00,
2013-04-12 22:36:00,56.3,25.2,29.77,SE,141,0.0,0.0,30,0.00,,,0.00,Wunderground v.1.15,2013-04-13 05:36:00,
2013-04-12 22:41:00,55.9,27.9,29.77,SW,225,0.0,0.0,34,0.00,,,0.00,Wunderground v.1.15,2013-04-13 05:41:00,
2013-04-12 22:46:00,55.6,28.4,29.76,WSW,238,0.0,0.0,35,0.00,,,0.00,Wunderground v.1.15,2013-04-13 05:46:00,
2013-04-12 22:52:00,56.3,26.8,29.76,SW,230,0.0,0.0,32,0.00,,,0.00,Wunderground v.1.15,2013-04-13 05:52:00,
2013-04-12 22:57:00,58.0,26.7,29.76,WSW,250,0.0,0.0,30,0.00,,,0.00,Wunderground v.1.15,2013-04-13 05:57:00,
2013-04-12 23:03:00,58.3,27.0,29.77,WSW,240,0.0,0.0,30,0.00,,,0.00,Wunderground v.1.15,2013-04-13 06:03:00,
2013-04-12 23:08:00,58.4,25.4,29.76,SW,230,0.0,0.0,28,0.00,,,0.00,Wunderground v.1.15,2013-04-13 06:08:00,
2013-04-12 23:13:00,58.3,26.1,29.77,WSW,244,0.0,0.0,29,0.00,,,0.00,Wunderground v.1.15,2013-04-13 06:13:00,
2013-04-12 23:18:00,57.6,26.4,29.77,WSW,241,0.0,0.0,30,0.00,,,0.00,Wunderground v.1.15,2013-04-13 06:18:00,
2013-04-12 23:24:00,57.2,29.1,29.77,WSW,243,0.0,0.0,34,0.00,,,0.00,Wunderground v.1.15,2013-04-13 06:24:00,
2013-04-12 23:30:00,57.6,29.4,29.77,SW,225,0.0,0.0,34,0.00,,,0.00,Wunderground v.1.15,2013-04-13 06:30:00,
2013-04-12 23:35:00,57.7,30.2,29.76,SSW,207,0.0,0.0,35,0.00,,,0.00,Wunderground v.1.15,2013-04-13 06:35:00,
2013-04-12 23:41:00,57.8,31.0,29.76,SW,230,0.0,0.0,36,0.00,,,0.00,Wunderground v.1.15,2013-04-13 06:41:00,
2013-04-12 23:49:00,57.2,31.8,29.76,SW,231,0.0,0.0,38,0.00,,,0.00,Wunderground v.1.15,2013-04-13 06:49:00,
2013-04-12 23:55:00,57.3,31.9,29.77,West,261,0.0,0.0,38,0.00,,,0.00,Wunderground v.1.15,2013-04-13 06:55:00,